Location: Unspecified
(0.0000°N, 0.0000°E)
Time: 17:24:44
(UTC+00:00)

LightSail 2 - Pass Details

Date: 17 January 2020
Orbit: 704 x 720 km, 24.0° (Epoch: 22 January)

Event Time Altitude Azimuth Distance (km) Brightness Sun altitude
Exits shadow 03:53:51 42° 136° (SE) 1,003 6.2 -31.5°
Drops below altitude 10° 03:57:16 10° 122° (ESE) 2,164 8.5 -30.7°
Sets 03:59:42 0° 120° (ESE) 3,082 9.6 -30.2°
